Location: Unspecified
(0.0000°N, 0.0000°E)
Time: 07:10:28
(UTC+00:00)

LES 2 - Pass Details

Date: 13 October 2025
Orbit: 2783 x 14792 km, 32.1° (Epoch: 30 October)

Event Time Altitude Azimuth Distance (km) Brightness Sun altitude
Rises 18:12:49 0° 303° (WNW) 15,153 ? -6.6°
Reaches altitude 10° 18:31:06 10° 311° (NW) 11,682 ? -11.1°
Maximum altitude 19:04:06 45° 22° (NNE) 4,559 ? -19.3°
Enters shadow 19:12:58 27° 77° (ENE) 4,622 ? -21.5°
